This is the latest recevied weather packets stored in our database for station/object KC5EZZ-2. If no packets are shown the sender has not sent any weather packets the latest 10 day(s).
| Time | Temp. | Humidity | Pressure | Rain* | Wind** | Luminosity | Snow |
|---|---|---|---|---|---|---|---|
| 1787586382 | 35° C | - | - | 0 mm | 4.92 m/s, 183° | - | - |
| 1787586082 | 34.44° C | - | - | 0 mm | 4.47 m/s, 225° | - | - |
| 1787585780 | 34.44° C | - | - | 0 mm | 4.02 m/s, 195° | - | - |
| 1787585480 | 33.89° C | - | - | 0 mm | 4.02 m/s, 188° | - | - |
| 1787585180 | 33.89° C | - | - | 0 mm | 4.02 m/s, 217° | - | - |
| 1787584878 | 33.89° C | - | - | 0 mm | 4.02 m/s, 191° | - | - |
| 1787584578 | 33.89° C | - | - | 0 mm | 3.58 m/s, 205° | - | - |
| 1787584278 | 32.78° C | - | - | 0 mm | 3.58 m/s, 188° | - | - |
| 1787583975 | 33.33° C | - | - | 0 mm | 3.58 m/s, 172° | - | - |
| 1787583676 | 32.78° C | - | - | 0 mm | 4.47 m/s, 152° | - | - |
| 1787583376 | 32.22° C | - | - | 0 mm | 5.36 m/s, 176° | - | - |
| 1787583073 | 31.67° C | - | - | 0 mm | 4.02 m/s, 174° | - | - |
| 1787582773 | 31.67° C | - | - | 0 mm | 4.92 m/s, 191° | - | - |
| 1787582474 | 31.67° C | - | - | 0 mm | 4.02 m/s, 167° | - | - |
| 1787582171 | 31.11° C | - | - | 0 mm | 5.36 m/s, 212° | - | - |
| 1787581871 | 30.56° C | - | - | 0 mm | 4.92 m/s, 177° | - | - |
| 1787581572 | 30.56° C | - | - | 0 mm | 5.81 m/s, 195° | - | - |
| 1787581317 | 30.56° C | - | - | 0 mm | 3.13 m/s, 195° | - | - |
| 1787581269 | 30.56° C | - | - | 0 mm | 3.13 m/s, 195° | - | - |
| 1787580969 | 30.56° C | - | - | 0 mm | 3.58 m/s, 194° | - | - |
| 1787580670 | 30° C | - | - | 0 mm | 3.13 m/s, 201° | - | - |
| 1787580367 | 30.56° C | - | - | 0 mm | 3.13 m/s, 183° | - | - |
| 1787580067 | 29.44° C | - | - | 0 mm | 3.13 m/s, 207° | - | - |
| 1787579768 | 29.44° C | - | - | 0 mm | 4.02 m/s, 215° | - | - |
| 1787579599 | 29.44° C | - | - | 0 mm | 3.13 m/s, 226° | - | - |
* Rain latest hour (hover to see other rain measurements)
** Current wind speed in m/s (hover to see current wind gust speed)